Hourly Weather Rudnya Viktorinskaya

Today, 16 April, Friday

Time Temperature Precipitation Wind Pressure Humidity
00:00 +7°C° 0 mm 2 mps 745 mmHg 93%
01:00 +7°C° 0 mm 2 mps 745 mmHg 94%
02:00 +7°C° 0 mm 2 mps 745 mmHg 94%
03:00 +6°C° 0.1 mm 2 mps 745 mmHg 94%
04:00 +6°C° 0.1 mm 2 mps 745 mmHg 94%
05:00 +6°C° 0.1 mm 2 mps 745 mmHg 95%
06:00 +7°C° 0.2 mm 2 mps 745 mmHg 92%
07:00 +8°C° 0.2 mm 3 mps 745 mmHg 90%
08:00 +8°C° 0.2 mm 3 mps 746 mmHg 88%
09:00 +8°C° 0.3 mm 4 mps 746 mmHg 82%
10:00 +9°C° 0.3 mm 5 mps 746 mmHg 77%
11:00 +10°C° 0.3 mm 6 mps 746 mmHg 71%
12:00 +10°C° 0.2 mm 6 mps 746 mmHg 69%
13:00 +11°C° 0.2 mm 6 mps 747 mmHg 68%
14:00 +11°C° 0.2 mm 6 mps 747 mmHg 66%
15:00 +10°C° 0.2 mm 5 mps 747 mmHg 69%
16:00 +11°C° 0.2 mm 4 mps 747 mmHg 71%
17:00 +11°C° 0.2 mm 4 mps 747 mmHg 74%
18:00 +10°C° 0.1 mm 3 mps 747 mmHg 79%
19:00 +9°C° 0.1 mm 3 mps 748 mmHg 83%
20:00 +8°C° 0.1 mm 3 mps 748 mmHg 88%
21:00 +8°C° 0 mm 3 mps 748 mmHg 89%
22:00 +8°C° 0 mm 3 mps 748 mmHg 90%
23:00 +7°C° 0 mm 3 mps 749 mmHg 91%

Tomorrow, 17 April, Saturday

Time Temperature Precipitation Wind Pressure Humidity
00:00 +7°C° 0 mm 3 mps 749 mmHg 91%
01:00 +7°C° 0 mm 3 mps 749 mmHg 91%
02:00 +5°C° 0 mm 3 mps 749 mmHg 92%
03:00 +5°C° 0 mm 3 mps 750 mmHg 92%
04:00 +5°C° 0 mm 3 mps 750 mmHg 93%
05:00 +5°C° 0 mm 2 mps 750 mmHg 93%
06:00 +5°C° 0 mm 3 mps 750 mmHg 90%
07:00 +7°C° 0 mm 3 mps 751 mmHg 87%
08:00 +8°C° 0 mm 3 mps 751 mmHg 84%
09:00 +9°C° 0.1 mm 3 mps 751 mmHg 77%
10:00 +10°C° 0.1 mm 3 mps 751 mmHg 69%
11:00 +12°C° 0.1 mm 3 mps 751 mmHg 61%
12:00 +12°C° 0.1 mm 3 mps 751 mmHg 60%
13:00 +13°C° 0.1 mm 2 mps 751 mmHg 59%
14:00 +13°C° 0.1 mm 2 mps 751 mmHg 58%
15:00 +12°C° 0.6 mm 2 mps 751 mmHg 66%
16:00 +10°C° 0.6 mm 2 mps 751 mmHg 74%
17:00 +9°C° 0.6 mm 2 mps 751 mmHg 82%
18:00 +9°C° 0.1 mm 2 mps 751 mmHg 85%
19:00 +8°C° 0.1 mm 2 mps 751 mmHg 87%
20:00 +9°C° 0.1 mm 1 mps 751 mmHg 89%
21:00 +8°C° 0.1 mm 2 mps 751 mmHg 90%
22:00 +8°C° 0.1 mm 2 mps 751 mmHg 92%
23:00 +8°C° 0.1 mm 2 mps 751 mmHg 93%

Day after tomorrow, 18 April, Sunday

Time Temperature Precipitation Wind Pressure Humidity
00:00 +8°C° 0.1 mm 2 mps 751 mmHg 93%
01:00 +7°C° 0.1 mm 2 mps 750 mmHg 94%
02:00 +7°C° 0.1 mm 2 mps 750 mmHg 95%
03:00 +7°C° 0.1 mm 2 mps 750 mmHg 95%
04:00 +7°C° 0.1 mm 2 mps 750 mmHg 95%
05:00 +7°C° 0.1 mm 2 mps 750 mmHg 95%
06:00 +7°C° 0 mm 2 mps 750 mmHg 94%
07:00 +8°C° 0 mm 2 mps 750 mmHg 93%
08:00 +8°C° 0 mm 2 mps 750 mmHg 93%
09:00 +8°C° 0 mm 2 mps 751 mmHg 89%
10:00 +9°C° 0 mm 2 mps 751 mmHg 85%
11:00 +9°C° 0 mm 3 mps 751 mmHg 82%
12:00 +10°C° 0 mm 3 mps 751 mmHg 79%
13:00 +10°C° 0 mm 3 mps 751 mmHg 76%
14:00 +11°C° 0 mm 3 mps 751 mmHg 72%
15:00 +10°C° 0 mm 3 mps 752 mmHg 75%
16:00 +10°C° 0 mm 3 mps 752 mmHg 77%
17:00 +9°C° 0 mm 2 mps 752 mmHg 80%
18:00 +9°C° 0 mm 3 mps 752 mmHg 80%
19:00 +7°C° 0 mm 4 mps 752 mmHg 80%
20:00 +6°C° 0 mm 5 mps 752 mmHg 80%
21:00 +6°C° 0 mm 5 mps 752 mmHg 82%
22:00 +5°C° 0 mm 4 mps 753 mmHg 83%
23:00 +4°C° 0 mm 4 mps 753 mmHg 85%

19 April, Monday

Time Temperature Precipitation Wind Pressure Humidity
00:00 +4°C° 0 mm 4 mps 753 mmHg 87%
01:00 +4°C° 0 mm 4 mps 753 mmHg 89%
02:00 +4°C° 0 mm 3 mps 753 mmHg 91%
03:00 +4°C° 0 mm 3 mps 753 mmHg 90%
04:00 +5°C° 0 mm 3 mps 753 mmHg 89%
05:00 +5°C° 0 mm 3 mps 753 mmHg 89%
06:00 +5°C° 0 mm 3 mps 753 mmHg 87%
07:00 +5°C° 0 mm 3 mps 753 mmHg 84%
08:00 +6°C° 0 mm 4 mps 753 mmHg 82%
09:00 +7°C° 0 mm 4 mps 753 mmHg 78%
10:00 +7°C° 0 mm 4 mps 753 mmHg 73%
11:00 +8°C° 0 mm 5 mps 752 mmHg 69%
12:00 +8°C° 0 mm 5 mps 752 mmHg 70%
13:00 +8°C° 0 mm 5 mps 752 mmHg 71%
14:00 +8°C° 0 mm 5 mps 752 mmHg 72%
15:00 +8°C° 0 mm 5 mps 752 mmHg 74%
16:00 +8°C° 0 mm 5 mps 752 mmHg 75%
17:00 +7°C° 0 mm 5 mps 751 mmHg 77%
18:00 +7°C° 0 mm 5 mps 751 mmHg 79%
19:00 +7°C° 0 mm 5 mps 751 mmHg 82%
20:00 +5°C° 0 mm 6 mps 751 mmHg 84%
21:00 +5°C° 0 mm 6 mps 750 mmHg 84%
22:00 +5°C° 0 mm 6 mps 750 mmHg 84%
23:00 +5°C° 0 mm 7 mps 749 mmHg 84%

20 April, Tuesday

Time Temperature Precipitation Wind Pressure Humidity
00:00 +4°C° 0 mm 7 mps 749 mmHg 85%
01:00 +4°C° 0 mm 7 mps 749 mmHg 86%
02:00 +4°C° 0 mm 7 mps 748 mmHg 87%
03:00 +4°C° 0 mm 7 mps 748 mmHg 87%
04:00 +4°C° 0 mm 7 mps 747 mmHg 87%
05:00 +4°C° 0 mm 7 mps 747 mmHg 86%
06:00 +4°C° 0 mm 7 mps 746 mmHg 85%
07:00 +4°C° 0 mm 8 mps 746 mmHg 84%
08:00 +4°C° 0 mm 8 mps 745 mmHg 83%
09:00 +4°C° 0 mm 8 mps 745 mmHg 83%
10:00 +4°C° 0 mm 8 mps 744 mmHg 83%
11:00 +3°C° 0 mm 9 mps 743 mmHg 83%
12:00 +3°C° 0.3 mm 9 mps 743 mmHg 84%
13:00 +3°C° 0.3 mm 9 mps 742 mmHg 85%
14:00 +3°C° 0.3 mm 9 mps 741 mmHg 86%
15:00 +2°C° 1.5 mm 9 mps 740 mmHg 89%
16:00 +1°C° 1.5 mm 9 mps 739 mmHg 92%
17:00 +1°C° 1.5 mm 9 mps 739 mmHg 95%
18:00 0°C° 0.8 mm 9 mps 738 mmHg 96%
19:00 0°C° 0.8 mm 8 mps 738 mmHg 96%
20:00 -1°C° 0.8 mm 7 mps 738 mmHg 96%
21:00 -1°C° 0.3 mm 7 mps 737 mmHg 96%
22:00 -1°C° 0.3 mm 6 mps 737 mmHg 96%
23:00 -1°C° 0.3 mm 6 mps 737 mmHg 96%

21 April, Wednesday

Time Temperature Precipitation Wind Pressure Humidity
00:00 0°C° 0.2 mm 5 mps 736 mmHg 96%
01:00 0°C° 0.2 mm 5 mps 736 mmHg 97%
02:00 0°C° 0.2 mm 5 mps 736 mmHg 97%
03:00 0°C° 0.5 mm 5 mps 736 mmHg 97%
04:00 +1°C° 0.5 mm 5 mps 735 mmHg 97%
05:00 +1°C° 0.5 mm 4 mps 735 mmHg 97%
06:00 +1°C° 0.6 mm 4 mps 735 mmHg 97%
07:00 +1°C° 0.6 mm 4 mps 736 mmHg 97%
08:00 +1°C° 0.6 mm 4 mps 736 mmHg 97%
09:00 +3°C° 0.3 mm 4 mps 736 mmHg 96%
10:00 +2°C° 0.3 mm 5 mps 737 mmHg 96%
11:00 +2°C° 0.3 mm 5 mps 737 mmHg 96%
12:00 +1°C° 0.2 mm 5 mps 738 mmHg 96%
13:00 +1°C° 0.2 mm 5 mps 739 mmHg 96%
14:00 +1°C° 0.2 mm 5 mps 739 mmHg 96%
15:00 +2°C° 0.2 mm 5 mps 740 mmHg 95%
16:00 +2°C° 0.2 mm 5 mps 741 mmHg 94%
17:00 +2°C° 0.2 mm 5 mps 741 mmHg 93%
18:00 +2°C° 0 mm 5 mps 742 mmHg 92%
19:00 +3°C° 0 mm 4 mps 743 mmHg 91%
20:00 +3°C° 0 mm 4 mps 744 mmHg 90%
21:00 +3°C° 0 mm 4 mps 744 mmHg 91%
22:00 +3°C° 0 mm 4 mps 745 mmHg 93%
23:00 +1°C° 0 mm 4 mps 745 mmHg 94%
Show more